Regional Weather Roundup
Issued by NWS Albany, NY

Home | Current Version | Previous Version | Text Only | Print | Product List | Glossary On
Versions: 1 2 3 4 5 6 7 8 9 10 11 12 13 14 15 16 17 18 19 20 21 22 23 24 25 26
000
ASUS41 KALY 251910
RWRALY

NEW YORK STATE HOURLY WEATHER ROUNDUP
NATIONAL WEATHER SERVICE ALBANY NY
300 PM EDT TUE APR 25 2017

NOTE: "FAIR" INDICATES FEW OR NO CLOUDS BELOW 12,000 FEET WITH NO
SIGNIFICANT WEATHER AND/OR NO OBSTRUCTIONS TO VISIBILITY.

NYZ032-033-038>043-046>054-057>066-NYZ062>081-082-084-252000-
EAST


CITY           SKY/WX    TMP DP  RH WIND       PRES   REMARKS
ALBANY         CLOUDY    53  47  79 N7        30.14F
GLENS FALLS    CLOUDY    54  45  71 N8        30.16F
POUGHKEEPSIE   CLOUDY    54  52  93 NW7       30.06F
NEWBURGH       CLOUDY    54  52  94 NE12      30.07F FOG
MONTGOMERY     LGT RAIN  53  50  89 NE14      30.04F FOG
WHITE PLAINS   LGT RAIN  55  53  93 E10G20    30.02F
ISLIP          LGT RAIN  54  53  97 NE20G28   30.01F FOG
NEW YORK CITY  CLOUDY    54  51  90 NE22      30.00F
CENTRAL PARK   CLOUDY    53  52  96 E20G29    30.03F
$$

NYZ005>009-017-018-044>046-055-056-252000-
CENTRAL


CITY           SKY/WX    TMP DP  RH WIND       PRES   REMARKS
FULTON         LGT RAIN  54  47  77 SE9G20    30.02F
SYRACUSE       CLOUDY    56  47  71 E15       30.02F
ROME           CLOUDY    52  47  83 SE13G23   30.11F
ELMIRA         CLOUDY    60  48  64 SE7       29.98F
BINGHAMTON     CLOUDY    55  48  77 E12       30.01F
MONTICELLO     CLOUDY    50  48  93 E15G22    30.05F
$$

NYZ026>034-041>043-087-252000-
NORTH


CITY           SKY/WX    TMP DP  RH WIND       PRES   REMARKS
WATERTOWN      LGT RAIN  53  51  93 E6        30.05F
FORT DRUM      NOT AVBL
OGDENSBURG     DRIZZLE   53  48  84 E7        30.10F
MASSENA        LGT RAIN  52  42  69 NE7       30.13F
SARANAC LAKE   LGT RAIN  50  46  86 SE6       30.11F
PLATTSBURGH    LGT RAIN  53  46  77 S9        30.19F
$$

NYZ001>004-010>016-019>021-085-252000-
WEST


CITY           SKY/WX    TMP DP  RH WIND       PRES   REMARKS
NIAGARA FALLS  CLOUDY    60  52  74 E10       29.90F
BUFFALO        LGT RAIN  60  53  77 E9        29.91F
DUNKIRK        CLOUDY    64  55  72 E8        29.88F
JAMESTOWN      CLOUDY    61  52  72 NE6       29.88F
WELLSVILLE     CLOUDY    63  50  62 SE12      29.95F
ROCHESTER      CLOUDY    60  51  72 SE12      29.97F
PENN YAN       CLOUDY    62  48  60 E10       29.98F
$$

             KEY
       WCI = WIND CHILL INDEX
       VSB = VISIBILITY
       HX  = HEAT INDEX
$$




USA.gov is the U.S. government's official web portal to all federal, state and local government web resources and services.